Hourly Data Report for August 03, 2021

LONDON CS
ONTARIO
Current Station Operator: ECCC - MSC

43°02'00.000" N
81°09'00.000" W
278.00 m
6144478
71622
WSN

Download Data

Hourly Data (August 2021)
Hourly Data Report for August 3, 2021
TIME
LST
Temp Definition
°C
Dew Point Definition
°C
Rel Hum Definition
%
Precip. Amount Definition
mm

Wind Dir Definition
10's deg

Wind Spd Definition
km/h
Visibility Definition
km
Stn Press Definition
kPa
Hmdx Definition


Wind Chill Definition


Weather Definition


00:00 13.1 11.1 87 0.0       98.77     LegendNANA
01:00 12.9 11.3 90 0.0       98.73     LegendNANA
02:00 12.4 10.9 91 0.0       98.68     LegendNANA
03:00 11.7 10.7 93 0.0       98.68     LegendNANA
04:00 11.5 10.1 92 0.0       98.67     LegendNANA
05:00 11.2 10.2 93 0.0       98.67     LegendNANA
06:00 11.4 10.5 94 0.0       98.69     LegendNANA
07:00 14.9 12.6 86 0.0       98.71     LegendNANA
08:00 18.9 14.2 74 0.0       98.74     LegendNANA
09:00 21.8 14.4 63 0.0       98.76 25   LegendNANA
10:00 21.9 13.8 60 0.0       98.77 25   LegendNANA
11:00 22.8 12.2 51 0.0       98.71 25   LegendNANA
12:00 23.2 12.4 51 0.0       98.69 26   LegendNANA
13:00 22.4 14.9 63 0.0       98.65 26   LegendNANA
14:00 22.2 15.5 66 0.0       98.61 26   LegendNANA
15:00 18.9 15.5 81 0.7       98.60     LegendNANA
16:00 19.1 16.2 84 0.0       98.58     LegendNANA
17:00 20.6 16.6 78 0.0       98.57 26   LegendNANA
18:00 21.0 17.1 78 0.0       98.57 26   LegendNANA
19:00 20.9 13.8 64 0.0       98.60     LegendNANA
20:00 18.9 14.1 74 0.0       98.62     LegendNANA
21:00 17.4 14.1 81 0.0       98.68     LegendNANA
22:00 16.0 14.1 88 0.0       98.68     LegendNANA
23:00 15.0 13.5 91 0.0       98.67     LegendNANA

Notes on Data Quality.

Legend

  • E = Estimated
  • M = Missing
  • NA = Not Available*
  • [empty] = Indicates an unobserved value
Date modified: